Time,TemperatureF,DewpointF,PressureIn,WindDirection,WindDirectionDegrees,WindSpeedMPH,WindSpeedGustMPH,Humidity,HourlyPrecipIn,Conditions,Clouds,dailyrainin,SoftwareType,DateUTC
2013-02-10 00:02:00,33.2,-99.9,28.73,SSW,202,3.0,-999.0,-999,-99.99,,,-99.99,,2013-02-10 00:02:00,
2013-02-10 00:08:00,33.2,-99.9,28.72,South,180,3.0,-999.0,-999,-99.99,,,-99.99,,2013-02-10 00:08:00,
2013-02-10 00:14:00,33.2,-99.9,28.72,SW,225,4.0,-999.0,-999,-99.99,,,-99.99,,2013-02-10 00:14:00,
2013-02-10 00:20:00,33.2,-99.9,28.72,South,180,5.0,-999.0,-999,-99.99,,,-99.99,,2013-02-10 00:20:00,
2013-02-10 00:26:00,33.2,-99.9,28.72,South,180,3.0,-999.0,-999,-99.99,,,-99.99,,2013-02-10 00:26:00,
2013-02-10 00:32:00,33.2,-99.9,28.71,SSW,202,6.0,-999.0,-999,-99.99,,,-99.99,,2013-02-10 00:32:00,
2013-02-10 00:38:00,33.3,-99.9,28.71,South,180,4.0,-999.0,-999,-99.99,,,-99.99,,2013-02-10 00:38:00,
2013-02-10 00:44:00,33.3,-99.9,28.71,SW,225,2.0,-999.0,-999,-99.99,,,-99.99,,2013-02-10 00:44:00,
2013-02-10 00:50:00,33.6,-99.9,28.71,SW,225,2.0,-999.0,-999,-99.99,,,-99.99,,2013-02-10 00:50:00,
2013-02-10 00:56:00,33.5,-99.9,28.70,West,270,4.0,-999.0,-999,-99.99,,,-99.99,,2013-02-10 00:56:00,
2013-02-10 01:02:00,33.3,-99.9,28.70,SSW,202,4.0,-999.0,-999,-99.99,,,-99.99,,2013-02-10 01:02:00,
2013-02-10 01:08:00,33.3,-99.9,28.70,SSE,157,6.0,-999.0,-999,-99.99,,,-99.99,,2013-02-10 01:08:00,
2013-02-10 01:14:00,33.3,-99.9,28.69,South,180,6.0,-999.0,-999,-99.99,,,-99.99,,2013-02-10 01:14:00,
2013-02-10 01:20:00,33.3,-99.9,28.69,South,180,7.0,-999.0,-999,-99.99,,,-99.99,,2013-02-10 01:20:00,
2013-02-10 01:26:00,33.2,-99.9,28.69,SSE,157,2.0,-999.0,-999,-99.99,,,-99.99,,2013-02-10 01:26:00,
2013-02-10 01:32:00,33.2,-99.9,28.68,SSW,202,3.0,-999.0,-999,-99.99,,,-99.99,,2013-02-10 01:32:00,
2013-02-10 01:38:00,33.2,-99.9,28.68,WSW,247,6.0,-999.0,-999,-99.99,,,-99.99,,2013-02-10 01:38:00,
2013-02-10 01:44:00,33.1,-99.9,28.68,South,180,3.0,-999.0,-999,-99.99,,,-99.99,,2013-02-10 01:44:00,
2013-02-10 01:50:00,33.0,-99.9,28.68,South,180,4.0,-999.0,-999,-99.99,,,-99.99,,2013-02-10 01:50:00,
2013-02-10 01:56:00,33.0,-99.9,28.67,SW,225,5.0,-999.0,-999,-99.99,,,-99.99,,2013-02-10 01:56:00,
2013-02-10 02:02:00,32.9,-99.9,28.67,SSW,202,3.0,-999.0,-999,-99.99,,,-99.99,,2013-02-10 02:02:00,
2013-02-10 02:08:00,32.9,-99.9,28.67,SW,225,5.0,-999.0,-999,-99.99,,,-99.99,,2013-02-10 02:08:00,
2013-02-10 02:14:00,32.9,-99.9,28.66,South,180,5.0,-999.0,-999,-99.99,,,-99.99,,2013-02-10 02:14:00,
2013-02-10 02:20:00,32.9,-99.9,28.66,SW,225,2.0,-999.0,-999,-99.99,,,-99.99,,2013-02-10 02:20:00,
2013-02-10 02:26:00,32.8,-99.9,28.66,West,270,3.0,-999.0,-999,-99.99,,,-99.99,,2013-02-10 02:26:00,
2013-02-10 02:32:00,32.8,-99.9,28.65,South,180,3.0,-999.0,-999,-99.99,,,-99.99,,2013-02-10 02:32:00,
2013-02-10 02:38:00,32.7,-99.9,28.65,SW,225,3.0,-999.0,-999,-99.99,,,-99.99,,2013-02-10 02:38:00,
2013-02-10 02:44:00,32.6,-99.9,28.64,SSW,202,1.0,-999.0,-999,-99.99,,,-99.99,,2013-02-10 02:44:00,
2013-02-10 02:50:00,32.6,-99.9,28.64,SE,135,0.0,-999.0,-999,-99.99,,,-99.99,,2013-02-10 02:50:00,
2013-02-10 02:56:00,32.6,-99.9,28.63,South,180,0.0,-999.0,-999,-99.99,,,-99.99,,2013-02-10 02:56:00,
2013-02-10 03:02:00,32.5,-99.9,28.63,East,90,1.0,-999.0,-999,-99.99,,,-99.99,,2013-02-10 03:02:00,
2013-02-10 03:08:00,32.3,-99.9,28.62,SSE,157,2.0,-999.0,-999,-99.99,,,-99.99,,2013-02-10 03:08:00,
2013-02-10 03:14:00,32.3,-99.9,28.62,SW,225,2.0,-999.0,-999,-99.99,,,-99.99,,2013-02-10 03:14:00,
2013-02-10 03:20:00,32.5,-99.9,28.62,SE,135,1.0,-999.0,-999,-99.99,,,-99.99,,2013-02-10 03:20:00,
2013-02-10 03:26:00,32.5,-99.9,28.62,SE,135,0.0,-999.0,-999,-99.99,,,-99.99,,2013-02-10 03:26:00,
2013-02-10 03:32:00,32.3,-99.9,28.61,South,180,2.0,-999.0,-999,-99.99,,,-99.99,,2013-02-10 03:32:00,
2013-02-10 03:38:00,32.5,-99.9,28.61,South,180,1.0,-999.0,-999,-99.99,,,-99.99,,2013-02-10 03:38:00,
2013-02-10 03:44:00,32.6,-99.9,28.61,WSW,247,3.0,-999.0,-999,-99.99,,,-99.99,,2013-02-10 03:44:00,
2013-02-10 03:50:00,32.6,-99.9,28.60,South,180,1.0,-999.0,-999,-99.99,,,-99.99,,2013-02-10 03:50:00,
2013-02-10 03:56:00,32.5,-99.9,28.60,SE,135,1.0,-999.0,-999,-99.99,,,-99.99,,2013-02-10 03:56:00,
2013-02-10 04:02:00,32.5,-99.9,28.60,SE,135,2.0,-999.0,-999,-99.99,,,-99.99,,2013-02-10 04:02:00,
2013-02-10 04:08:00,32.5,-99.9,28.59,South,180,3.0,-999.0,-999,-99.99,,,-99.99,,2013-02-10 04:08:00,
2013-02-10 04:14:00,32.6,-99.9,28.59,South,180,4.0,-999.0,-999,-99.99,,,-99.99,,2013-02-10 04:14:00,
2013-02-10 04:20:00,32.7,-99.9,28.59,SE,135,2.0,-999.0,-999,-99.99,,,-99.99,,2013-02-10 04:20:00,
2013-02-10 04:26:00,32.7,-99.9,28.58,SSW,202,3.0,-999.0,-999,-99.99,,,-99.99,,2013-02-10 04:26:00,
2013-02-10 04:32:00,32.6,-99.9,28.58,South,180,2.0,-999.0,-999,-99.99,,,-99.99,,2013-02-10 04:32:00,
2013-02-10 04:38:00,32.5,-99.9,28.58,SE,135,1.0,-999.0,-999,-99.99,,,-99.99,,2013-02-10 04:38:00,
2013-02-10 04:44:00,32.3,-99.9,28.57,South,180,3.0,-999.0,-999,-99.99,,,-99.99,,2013-02-10 04:44:00,
2013-02-10 04:50:00,32.2,-99.9,28.57,WSW,247,2.0,-999.0,-999,-99.99,,,-99.99,,2013-02-10 04:50:00,
2013-02-10 04:56:00,32.0,-99.9,28.56,East,90,2.0,-999.0,-999,-99.99,,,-99.99,,2013-02-10 04:56:00,
2013-02-10 05:00:00,31.9,-99.9,28.56,WSW,247,1.0,-999.0,-999,-99.99,,,-99.99,,2013-02-10 05:00:00,
2013-02-10 05:06:00,31.9,-99.9,28.56,SW,225,2.0,-999.0,-999,-99.99,,,-99.99,,2013-02-10 05:06:00,
2013-02-10 05:12:00,31.9,-99.9,28.56,ENE,67,2.0,-999.0,-999,-99.99,,,-99.99,,2013-02-10 05:12:00,
2013-02-10 05:18:00,31.9,-99.9,28.55,SW,225,2.0,-999.0,-999,-99.99,,,-99.99,,2013-02-10 05:18:00,
2013-02-10 05:24:00,31.9,-99.9,28.55,SW,225,1.0,-999.0,-999,-99.99,,,-99.99,,2013-02-10 05:24:00,
2013-02-10 05:30:00,31.9,-99.9,28.55,SW,225,1.0,-999.0,-999,-99.99,,,-99.99,,2013-02-10 05:30:00,
2013-02-10 05:36:00,31.9,-99.9,28.55,SSE,157,0.0,-999.0,-999,-99.99,,,-99.99,,2013-02-10 05:36:00,
2013-02-10 05:42:00,32.0,-99.9,28.54,SE,135,3.0,-999.0,-999,-99.99,,,-99.99,,2013-02-10 05:42:00,
2013-02-10 05:48:00,31.9,-99.9,28.54,SW,225,0.0,-999.0,-999,-99.99,,,-99.99,,2013-02-10 05:48:00,
2013-02-10 05:50:00,31.9,-99.9,28.54,SW,225,0.0,-999.0,-999,-99.99,,,-99.99,,2013-02-10 05:50:00,
2013-02-10 05:56:00,31.9,-99.9,28.53,WSW,247,0.0,-999.0,-999,-99.99,,,-99.99,,2013-02-10 05:56:00,
2013-02-10 06:00:00,31.9,-99.9,28.53,SSW,202,2.0,-999.0,-999,-99.99,,,-99.99,,2013-02-10 06:00:00,
2013-02-10 06:06:00,31.9,-99.9,28.53,SSW,202,2.0,-999.0,-999,-99.99,,,-99.99,,2013-02-10 06:06:00,
2013-02-10 06:12:00,31.8,-99.9,28.53,SSE,157,2.0,-999.0,-999,-99.99,,,-99.99,,2013-02-10 06:12:00,
2013-02-10 06:18:00,31.8,-99.9,28.53,SSW,202,3.0,-999.0,-999,-99.99,,,-99.99,,2013-02-10 06:18:00,
2013-02-10 06:24:00,31.7,-99.9,28.53,SW,225,2.0,-999.0,-999,-99.99,,,-99.99,,2013-02-10 06:24:00,
2013-02-10 06:30:00,31.5,-99.9,28.52,SW,225,0.0,-999.0,-999,-99.99,,,-99.99,,2013-02-10 06:30:00,
2013-02-10 06:36:00,31.8,-99.9,28.52,SE,135,1.0,-999.0,-999,-99.99,,,-99.99,,2013-02-10 06:36:00,
2013-02-10 06:42:00,31.7,-99.9,28.52,SSE,157,0.0,-999.0,-999,-99.99,,,-99.99,,2013-02-10 06:42:00,
2013-02-10 06:48:00,31.5,-99.9,28.52,SSE,157,2.0,-999.0,-999,-99.99,,,-99.99,,2013-02-10 06:48:00,
2013-02-10 06:54:00,31.5,-99.9,28.51,SSW,202,1.0,-999.0,-999,-99.99,,,-99.99,,2013-02-10 06:54:00,
2013-02-10 07:00:00,31.5,-99.9,28.51,SW,225,1.0,-999.0,-999,-99.99,,,-99.99,,2013-02-10 07:00:00,
2013-02-10 07:06:00,31.7,-99.9,28.51,SSW,202,1.0,-999.0,-999,-99.99,,,-99.99,,2013-02-10 07:06:00,
2013-02-10 07:12:00,31.7,-99.9,28.51,South,180,2.0,-999.0,-999,-99.99,,,-99.99,,2013-02-10 07:12:00,
2013-02-10 07:18:00,31.5,-99.9,28.50,SSE,157,3.0,-999.0,-999,-99.99,,,-99.99,,2013-02-10 07:18:00,
2013-02-10 07:24:00,31.5,-99.9,28.50,SSW,202,2.0,-999.0,-999,-99.99,,,-99.99,,2013-02-10 07:24:00,
2013-02-10 07:30:00,31.4,-99.9,28.50,SSW,202,2.0,-999.0,-999,-99.99,,,-99.99,,2013-02-10 07:30:00,
2013-02-10 07:36:00,31.5,-99.9,28.49,SSW,202,3.0,-999.0,-999,-99.99,,,-99.99,,2013-02-10 07:36:00,
2013-02-10 07:42:00,31.4,-99.9,28.50,SSW,202,3.0,-999.0,-999,-99.99,,,-99.99,,2013-02-10 07:42:00,
2013-02-10 07:48:00,31.5,-99.9,28.49,SSW,202,2.0,-999.0,-999,-99.99,,,-99.99,,2013-02-10 07:48:00,
2013-02-10 07:54:00,31.5,-99.9,28.49,SW,225,1.0,-999.0,-999,-99.99,,,-99.99,,2013-02-10 07:54:00,
2013-02-10 08:00:00,31.5,-99.9,28.49,SSW,202,1.0,-999.0,-999,-99.99,,,-99.99,,2013-02-10 08:00:00,
2013-02-10 08:06:00,31.5,-99.9,28.48,WSW,247,3.0,-999.0,-999,-99.99,,,-99.99,,2013-02-10 08:06:00,
2013-02-10 08:12:00,31.5,-99.9,28.48,ESE,112,3.0,-999.0,-999,-99.99,,,-99.99,,2013-02-10 08:12:00,
2013-02-10 08:18:00,31.5,-99.9,28.48,SW,225,4.0,-999.0,-999,-99.99,,,-99.99,,2013-02-10 08:18:00,
2013-02-10 08:24:00,31.7,-99.9,28.48,WSW,247,3.0,-999.0,-999,-99.99,,,-99.99,,2013-02-10 08:24:00,
2013-02-10 08:30:00,31.7,-99.9,28.47,WSW,247,6.0,-999.0,-999,-99.99,,,-99.99,,2013-02-10 08:30:00,
2013-02-10 08:36:00,31.7,-99.9,28.47,SW,225,3.0,-999.0,-999,-99.99,,,-99.99,,2013-02-10 08:36:00,
2013-02-10 08:42:00,31.7,-99.9,28.47,WSW,247,2.0,-999.0,-999,-99.99,,,-99.99,,2013-02-10 08:42:00,
2013-02-10 08:48:00,31.7,-99.9,28.47,SW,225,7.0,-999.0,-999,-99.99,,,-99.99,,2013-02-10 08:48:00,
2013-02-10 08:54:00,31.8,-99.9,28.47,SW,225,2.0,-999.0,-999,-99.99,,,-99.99,,2013-02-10 08:54:00,
2013-02-10 09:00:00,31.8,-99.9,28.46,SW,225,5.0,-999.0,-999,-99.99,,,-99.99,,2013-02-10 09:00:00,
2013-02-10 09:06:00,31.9,-99.9,28.46,SSW,202,5.0,-999.0,-999,-99.99,,,-99.99,,2013-02-10 09:06:00,
2013-02-10 09:12:00,32.0,-99.9,28.46,SSW,202,5.0,-999.0,-999,-99.99,,,-99.99,,2013-02-10 09:12:00,
2013-02-10 09:18:00,32.0,-99.9,28.46,South,180,4.0,-999.0,-999,-99.99,,,-99.99,,2013-02-10 09:18:00,
2013-02-10 09:24:00,32.0,-99.9,28.46,West,270,2.0,-999.0,-999,-99.99,,,-99.99,,2013-02-10 09:24:00,
2013-02-10 09:30:00,32.1,-99.9,28.46,South,180,3.0,-999.0,-999,-99.99,,,-99.99,,2013-02-10 09:30:00,
2013-02-10 09:36:00,32.1,-99.9,28.45,SSW,202,9.0,-999.0,-999,-99.99,,,-99.99,,2013-02-10 09:36:00,
2013-02-10 09:42:00,32.2,-99.9,28.45,West,270,5.0,-999.0,-999,-99.99,,,-99.99,,2013-02-10 09:42:00,
2013-02-10 09:48:00,32.2,-99.9,28.45,WSW,247,3.0,-999.0,-999,-99.99,,,-99.99,,2013-02-10 09:48:00,
2013-02-10 09:54:00,32.3,-99.9,28.45,West,270,5.0,-999.0,-999,-99.99,,,-99.99,,2013-02-10 09:54:00,
2013-02-10 10:00:00,32.3,-99.9,28.45,WSW,247,4.0,-999.0,-999,-99.99,,,-99.99,,2013-02-10 10:00:00,
2013-02-10 10:06:00,32.3,-99.9,28.45,SW,225,4.0,-999.0,-999,-99.99,,,-99.99,,2013-02-10 10:06:00,
2013-02-10 10:12:00,32.5,-99.9,28.44,SW,225,4.0,-999.0,-999,-99.99,,,-99.99,,2013-02-10 10:12:00,
2013-02-10 10:18:00,32.3,-99.9,28.44,SW,225,6.0,-999.0,-999,-99.99,,,-99.99,,2013-02-10 10:18:00,
2013-02-10 10:24:00,32.2,-99.9,28.44,West,270,9.0,-999.0,-999,-99.99,,,-99.99,,2013-02-10 10:24:00,
2013-02-10 10:30:00,32.2,-99.9,28.44,SSE,157,10.0,-999.0,-999,-99.99,,,-99.99,,2013-02-10 10:30:00,
2013-02-10 10:36:00,32.1,-99.9,28.44,SW,225,10.0,-999.0,-999,-99.99,,,-99.99,,2013-02-10 10:36:00,
2013-02-10 10:42:00,32.0,-99.9,28.44,SW,225,11.0,-999.0,-999,-99.99,,,-99.99,,2013-02-10 10:42:00,
2013-02-10 10:48:00,32.0,-99.9,28.44,South,180,7.0,-999.0,-999,-99.99,,,-99.99,,2013-02-10 10:48:00,
2013-02-10 10:54:00,32.1,-99.9,28.44,West,270,9.0,-999.0,-999,-99.99,,,-99.99,,2013-02-10 10:54:00,
2013-02-10 11:00:00,32.1,-99.9,28.44,South,180,7.0,-999.0,-999,-99.99,,,-99.99,,2013-02-10 11:00:00,
2013-02-10 11:07:00,32.1,-99.9,28.43,WSW,247,11.0,-999.0,-999,-99.99,,,-99.99,,2013-02-10 11:07:00,
2013-02-10 11:12:00,-999.0,-99.9,28.43,North,-999,-999.0,-999.0,-999,-99.99,,,-99.99,,2013-02-10 11:12:00,
2013-02-10 11:18:00,-999.0,-99.9,28.43,North,-999,-999.0,-999.0,-999,-99.99,,,-99.99,,2013-02-10 11:18:00,
2013-02-10 11:24:00,-999.0,-99.9,28.43,North,-999,-999.0,-999.0,-999,-99.99,,,-99.99,,2013-02-10 11:24:00,
2013-02-10 11:30:00,-999.0,-99.9,28.43,North,-999,-999.0,-999.0,-999,-99.99,,,-99.99,,2013-02-10 11:30:00,
2013-02-10 11:36:00,-999.0,-99.9,28.43,North,-999,-999.0,-999.0,-999,-99.99,,,-99.99,,2013-02-10 11:36:00,
2013-02-10 11:42:00,-999.0,-99.9,28.43,North,-999,-999.0,-999.0,-999,-99.99,,,-99.99,,2013-02-10 11:42:00,
2013-02-10 11:48:00,-999.0,-99.9,28.43,North,-999,-999.0,-999.0,-999,-99.99,,,-99.99,,2013-02-10 11:48:00,
2013-02-10 11:54:00,-999.0,-99.9,28.43,North,-999,-999.0,-999.0,-999,-99.99,,,-99.99,,2013-02-10 11:54:00,
2013-02-10 12:00:00,-999.0,-99.9,28.43,North,-999,-999.0,-999.0,-999,-99.99,,,-99.99,,2013-02-10 12:00:00,
2013-02-10 12:06:00,-999.0,-99.9,28.43,North,-999,-999.0,-999.0,-999,-99.99,,,-99.99,,2013-02-10 12:06:00,
2013-02-10 12:12:00,-999.0,-99.9,28.42,North,-999,-999.0,-999.0,-999,-99.99,,,-99.99,,2013-02-10 12:12:00,
2013-02-10 12:18:00,-999.0,-99.9,28.42,North,-999,-999.0,-999.0,-999,-99.99,,,-99.99,,2013-02-10 12:18:00,
2013-02-10 12:24:00,-999.0,-99.9,28.42,North,-999,-999.0,-999.0,-999,-99.99,,,-99.99,,2013-02-10 12:24:00,
2013-02-10 12:30:00,-999.0,-99.9,28.42,North,-999,-999.0,-999.0,-999,-99.99,,,-99.99,,2013-02-10 12:30:00,
2013-02-10 12:36:00,-999.0,-99.9,28.41,North,-999,-999.0,-999.0,-999,-99.99,,,-99.99,,2013-02-10 12:36:00,
2013-02-10 12:42:00,-999.0,-99.9,28.41,North,-999,-999.0,-999.0,-999,-99.99,,,-99.99,,2013-02-10 12:42:00,
2013-02-10 12:48:00,-999.0,-99.9,28.41,North,-999,-999.0,-999.0,-999,-99.99,,,-99.99,,2013-02-10 12:48:00,
2013-02-10 12:54:00,-999.0,-99.9,28.40,North,-999,-999.0,-999.0,-999,-99.99,,,-99.99,,2013-02-10 12:54:00,
2013-02-10 13:00:00,-999.0,-99.9,28.40,North,-999,-999.0,-999.0,-999,-99.99,,,-99.99,,2013-02-10 13:00:00,
2013-02-10 13:06:00,-999.0,-99.9,28.40,North,-999,-999.0,-999.0,-999,-99.99,,,-99.99,,2013-02-10 13:06:00,
2013-02-10 13:12:00,-999.0,-99.9,28.40,North,-999,-999.0,-999.0,-999,-99.99,,,-99.99,,2013-02-10 13:12:00,
2013-02-10 13:18:00,-999.0,-99.9,28.40,North,-999,-999.0,-999.0,-999,-99.99,,,-99.99,,2013-02-10 13:18:00,
2013-02-10 13:24:00,-999.0,-99.9,28.40,North,-999,-999.0,-999.0,-999,-99.99,,,-99.99,,2013-02-10 13:24:00,
2013-02-10 13:30:00,-999.0,-99.9,28.39,North,-999,-999.0,-999.0,-999,-99.99,,,-99.99,,2013-02-10 13:30:00,
2013-02-10 13:36:00,-999.0,-99.9,28.39,North,-999,-999.0,-999.0,-999,-99.99,,,-99.99,,2013-02-10 13:36:00,
2013-02-10 13:42:00,-999.0,-99.9,28.39,North,-999,-999.0,-999.0,-999,-99.99,,,-99.99,,2013-02-10 13:42:00,
2013-02-10 13:48:00,-999.0,-99.9,28.39,North,-999,-999.0,-999.0,-999,-99.99,,,-99.99,,2013-02-10 13:48:00,
2013-02-10 13:54:00,-999.0,-99.9,28.39,North,-999,-999.0,-999.0,-999,-99.99,,,-99.99,,2013-02-10 13:54:00,
2013-02-10 14:00:00,-999.0,-99.9,28.39,North,-999,-999.0,-999.0,-999,-99.99,,,-99.99,,2013-02-10 14:00:00,
2013-02-10 14:06:00,-999.0,-99.9,28.38,North,-999,-999.0,-999.0,-999,-99.99,,,-99.99,,2013-02-10 14:06:00,
2013-02-10 14:12:00,-999.0,-99.9,28.38,North,-999,-999.0,-999.0,-999,-99.99,,,-99.99,,2013-02-10 14:12:00,
2013-02-10 14:18:00,-999.0,-99.9,28.38,North,-999,-999.0,-999.0,-999,-99.99,,,-99.99,,2013-02-10 14:18:00,
2013-02-10 14:24:00,-999.0,-99.9,28.38,North,-999,-999.0,-999.0,-999,-99.99,,,-99.99,,2013-02-10 14:24:00,
2013-02-10 14:30:00,-999.0,-99.9,28.38,North,-999,-999.0,-999.0,-999,-99.99,,,-99.99,,2013-02-10 14:30:00,
2013-02-10 14:36:00,-999.0,-99.9,28.38,North,-999,-999.0,-999.0,-999,-99.99,,,-99.99,,2013-02-10 14:36:00,
2013-02-10 14:42:00,-999.0,-99.9,28.38,North,-999,-999.0,-999.0,-999,-99.99,,,-99.99,,2013-02-10 14:42:00,
2013-02-10 14:48:00,-999.0,-99.9,28.38,North,-999,-999.0,-999.0,-999,-99.99,,,-99.99,,2013-02-10 14:48:00,
2013-02-10 14:54:00,-999.0,-99.9,28.37,North,-999,-999.0,-999.0,-999,-99.99,,,-99.99,,2013-02-10 14:54:00,
2013-02-10 15:00:00,-999.0,-99.9,28.37,North,-999,-999.0,-999.0,-999,-99.99,,,-99.99,,2013-02-10 15:00:00,
2013-02-10 15:06:00,-999.0,-99.9,28.37,North,-999,-999.0,-999.0,-999,-99.99,,,-99.99,,2013-02-10 15:06:00,
2013-02-10 15:12:00,-999.0,-99.9,28.37,North,-999,-999.0,-999.0,-999,-99.99,,,-99.99,,2013-02-10 15:12:00,
2013-02-10 15:18:00,-999.0,-99.9,28.36,North,-999,-999.0,-999.0,-999,-99.99,,,-99.99,,2013-02-10 15:18:00,
2013-02-10 15:24:00,-999.0,-99.9,28.36,North,-999,-999.0,-999.0,-999,-99.99,,,-99.99,,2013-02-10 15:24:00,
2013-02-10 15:30:00,-999.0,-99.9,28.36,North,-999,-999.0,-999.0,-999,-99.99,,,-99.99,,2013-02-10 15:30:00,
2013-02-10 15:36:00,-999.0,-99.9,28.36,North,-999,-999.0,-999.0,-999,-99.99,,,-99.99,,2013-02-10 15:36:00,
2013-02-10 15:42:00,-999.0,-99.9,28.36,North,-999,-999.0,-999.0,-999,-99.99,,,-99.99,,2013-02-10 15:42:00,
2013-02-10 15:48:00,-999.0,-99.9,28.36,North,-999,-999.0,-999.0,-999,-99.99,,,-99.99,,2013-02-10 15:48:00,
2013-02-10 15:54:00,-999.0,-99.9,28.36,North,-999,-999.0,-999.0,-999,-99.99,,,-99.99,,2013-02-10 15:54:00,
2013-02-10 16:00:00,-999.0,-99.9,28.36,North,-999,-999.0,-999.0,-999,-99.99,,,-99.99,,2013-02-10 16:00:00,
2013-02-10 16:06:00,-999.0,-99.9,28.36,North,-999,-999.0,-999.0,-999,-99.99,,,-99.99,,2013-02-10 16:06:00,
2013-02-10 16:12:00,-999.0,-99.9,28.36,North,-999,-999.0,-999.0,-999,-99.99,,,-99.99,,2013-02-10 16:12:00,
2013-02-10 16:18:00,-999.0,-99.9,28.35,North,-999,-999.0,-999.0,-999,-99.99,,,-99.99,,2013-02-10 16:18:00,
2013-02-10 16:24:00,-999.0,-99.9,28.35,North,-999,-999.0,-999.0,-999,-99.99,,,-99.99,,2013-02-10 16:24:00,
2013-02-10 16:30:00,-999.0,-99.9,28.35,North,-999,-999.0,-999.0,-999,-99.99,,,-99.99,,2013-02-10 16:30:00,
2013-02-10 16:36:00,-999.0,-99.9,28.35,North,-999,-999.0,-999.0,-999,-99.99,,,-99.99,,2013-02-10 16:36:00,
2013-02-10 16:42:00,-999.0,-99.9,28.35,North,-999,-999.0,-999.0,-999,-99.99,,,-99.99,,2013-02-10 16:42:00,
2013-02-10 16:48:00,-999.0,-99.9,28.35,North,-999,-999.0,-999.0,-999,-99.99,,,-99.99,,2013-02-10 16:48:00,
2013-02-10 16:54:00,-999.0,-99.9,28.35,North,-999,-999.0,-999.0,-999,-99.99,,,-99.99,,2013-02-10 16:54:00,
2013-02-10 17:01:00,-999.0,-99.9,28.35,North,-999,-999.0,-999.0,-999,-99.99,,,-99.99,,2013-02-10 17:01:00,
2013-02-10 17:06:00,-999.0,-99.9,28.35,North,-999,-999.0,-999.0,-999,-99.99,,,-99.99,,2013-02-10 17:06:00,
2013-02-10 17:12:00,-999.0,-99.9,28.35,North,-999,-999.0,-999.0,-999,-99.99,,,-99.99,,2013-02-10 17:12:00,
2013-02-10 17:18:00,-999.0,-99.9,28.35,North,-999,-999.0,-999.0,-999,-99.99,,,-99.99,,2013-02-10 17:18:00,
2013-02-10 17:24:00,-999.0,-99.9,28.35,North,-999,-999.0,-999.0,-999,-99.99,,,-99.99,,2013-02-10 17:24:00,
2013-02-10 17:30:00,-999.0,-99.9,28.35,North,-999,-999.0,-999.0,-999,-99.99,,,-99.99,,2013-02-10 17:30:00,
2013-02-10 17:36:00,-999.0,-99.9,28.35,North,-999,-999.0,-999.0,-999,-99.99,,,-99.99,,2013-02-10 17:36:00,
2013-02-10 17:42:00,-999.0,-99.9,28.35,North,-999,-999.0,-999.0,-999,-99.99,,,-99.99,,2013-02-10 17:42:00,
2013-02-10 17:48:00,-999.0,-99.9,28.35,North,-999,-999.0,-999.0,-999,-99.99,,,-99.99,,2013-02-10 17:48:00,
2013-02-10 17:54:00,-999.0,-99.9,28.35,North,-999,-999.0,-999.0,-999,-99.99,,,-99.99,,2013-02-10 17:54:00,
2013-02-10 18:00:00,-999.0,-99.9,28.35,North,-999,-999.0,-999.0,-999,-99.99,,,-99.99,,2013-02-10 18:00:00,
2013-02-10 18:06:00,-999.0,-99.9,28.35,North,-999,-999.0,-999.0,-999,-99.99,,,-99.99,,2013-02-10 18:06:00,
2013-02-10 18:12:00,-999.0,-99.9,28.35,North,-999,-999.0,-999.0,-999,-99.99,,,-99.99,,2013-02-10 18:12:00,
2013-02-10 18:18:00,-999.0,-99.9,28.35,North,-999,-999.0,-999.0,-999,-99.99,,,-99.99,,2013-02-10 18:18:00,
2013-02-10 18:24:00,-999.0,-99.9,28.35,North,-999,-999.0,-999.0,-999,-99.99,,,-99.99,,2013-02-10 18:24:00,
2013-02-10 18:30:00,-999.0,-99.9,28.35,North,-999,-999.0,-999.0,-999,-99.99,,,-99.99,,2013-02-10 18:30:00,
2013-02-10 18:36:00,-999.0,-99.9,28.35,North,-999,-999.0,-999.0,-999,-99.99,,,-99.99,,2013-02-10 18:36:00,
2013-02-10 18:42:00,-999.0,-99.9,28.35,North,-999,-999.0,-999.0,-999,-99.99,,,-99.99,,2013-02-10 18:42:00,
2013-02-10 18:48:00,-999.0,-99.9,28.35,North,-999,-999.0,-999.0,-999,-99.99,,,-99.99,,2013-02-10 18:48:00,
2013-02-10 18:54:00,-999.0,-99.9,28.36,North,-999,-999.0,-999.0,-999,-99.99,,,-99.99,,2013-02-10 18:54:00,
2013-02-10 19:00:00,-999.0,-99.9,28.36,North,-999,-999.0,-999.0,-999,-99.99,,,-99.99,,2013-02-10 19:00:00,
2013-02-10 19:06:00,-999.0,-99.9,28.36,North,-999,-999.0,-999.0,-999,-99.99,,,-99.99,,2013-02-10 19:06:00,
2013-02-10 19:12:00,-999.0,-99.9,28.36,North,-999,-999.0,-999.0,-999,-99.99,,,-99.99,,2013-02-10 19:12:00,
2013-02-10 19:18:00,-999.0,-99.9,28.36,North,-999,-999.0,-999.0,-999,-99.99,,,-99.99,,2013-02-10 19:18:00,
2013-02-10 19:24:00,34.4,-99.9,28.36,SSW,202,11.0,-999.0,-999,-99.99,,,-99.99,,2013-02-10 19:24:00,
2013-02-10 19:30:00,34.4,-99.9,28.36,WSW,247,10.0,-999.0,-999,-99.99,,,-99.99,,2013-02-10 19:30:00,
2013-02-10 19:39:00,34.2,-99.9,28.36,South,180,-999.0,-999.0,-999,-99.99,,,-99.99,,2013-02-10 19:39:00,
2013-02-10 19:45:00,34.2,-99.9,28.37,SSW,202,10.0,-999.0,-999,-99.99,,,-99.99,,2013-02-10 19:45:00,
2013-02-10 19:51:00,34.2,-99.9,28.37,SSE,157,13.0,-999.0,-999,-99.99,,,-99.99,,2013-02-10 19:51:00,
2013-02-10 19:57:00,34.2,-99.9,28.37,SE,135,11.0,-999.0,-999,-99.99,,,-99.99,,2013-02-10 19:57:00,
2013-02-10 20:03:00,34.1,-99.9,28.37,South,180,12.0,-999.0,-999,-99.99,,,-99.99,,2013-02-10 20:03:00,
2013-02-10 20:09:00,34.1,-99.9,28.37,SW,225,14.0,-999.0,-999,-99.99,,,-99.99,,2013-02-10 20:09:00,
2013-02-10 20:15:00,34.1,-99.9,28.37,WSW,247,14.0,-999.0,-999,-99.99,,,-99.99,,2013-02-10 20:15:00,
2013-02-10 20:21:00,34.2,-99.9,28.37,SW,225,12.0,-999.0,-999,-99.99,,,-99.99,,2013-02-10 20:21:00,
2013-02-10 20:27:00,34.2,-99.9,28.37,SSW,202,13.0,-999.0,-999,-99.99,,,-99.99,,2013-02-10 20:27:00,
2013-02-10 20:33:00,34.2,-99.9,28.38,South,180,10.0,-999.0,-999,-99.99,,,-99.99,,2013-02-10 20:33:00,
2013-02-10 20:39:00,34.1,-99.9,28.38,SW,225,16.0,-999.0,-999,-99.99,,,-99.99,,2013-02-10 20:39:00,
2013-02-10 20:44:00,34.2,-99.9,28.38,South,180,15.0,-999.0,-999,-99.99,,,-99.99,,2013-02-10 20:44:00,
2013-02-10 20:50:00,34.1,-99.9,28.38,South,180,14.0,-999.0,-999,-99.99,,,-99.99,,2013-02-10 20:50:00,
2013-02-10 20:56:00,34.0,-99.9,28.38,WSW,247,14.0,-999.0,-999,-99.99,,,-99.99,,2013-02-10 20:56:00,
2013-02-10 21:02:00,33.9,-99.9,28.38,SSW,202,15.0,-999.0,-999,-99.99,,,-99.99,,2013-02-10 21:02:00,
2013-02-10 21:08:00,33.8,-99.9,28.38,South,180,17.0,-999.0,-999,-99.99,,,-99.99,,2013-02-10 21:08:00,
2013-02-10 21:14:00,33.9,-99.9,28.38,SSW,202,15.0,-999.0,-999,-99.99,,,-99.99,,2013-02-10 21:14:00,
2013-02-10 21:20:00,33.8,-99.9,28.38,SSW,202,13.0,-999.0,-999,-99.99,,,-99.99,,2013-02-10 21:20:00,
2013-02-10 21:26:00,33.8,-99.9,28.38,SW,225,16.0,-999.0,-999,-99.99,,,-99.99,,2013-02-10 21:26:00,
2013-02-10 21:32:00,33.9,-99.9,28.38,SSE,157,15.0,-999.0,-999,-99.99,,,-99.99,,2013-02-10 21:32:00,
2013-02-10 21:38:00,33.8,-99.9,28.38,SE,135,15.0,-999.0,-999,-99.99,,,-99.99,,2013-02-10 21:38:00,
2013-02-10 21:44:00,33.9,-99.9,28.38,SW,225,14.0,-999.0,-999,-99.99,,,-99.99,,2013-02-10 21:44:00,
2013-02-10 21:50:00,33.8,-99.9,28.38,South,180,22.0,-999.0,-999,-99.99,,,-99.99,,2013-02-10 21:50:00,
2013-02-10 21:56:00,33.7,-99.9,28.38,South,180,19.0,-999.0,-999,-99.99,,,-99.99,,2013-02-10 21:56:00,
2013-02-10 22:02:00,33.7,-99.9,28.39,South,180,14.0,-999.0,-999,-99.99,,,-99.99,,2013-02-10 22:02:00,
2013-02-10 22:08:00,33.7,-99.9,28.39,SSE,157,16.0,-999.0,-999,-99.99,,,-99.99,,2013-02-10 22:08:00,
2013-02-10 22:14:00,33.7,-99.9,28.39,South,180,15.0,-999.0,-999,-99.99,,,-99.99,,2013-02-10 22:14:00,
2013-02-10 22:20:00,33.7,-99.9,28.39,South,180,14.0,-999.0,-999,-99.99,,,-99.99,,2013-02-10 22:20:00,
2013-02-10 22:26:00,33.6,-99.9,28.39,SW,225,14.0,-999.0,-999,-99.99,,,-99.99,,2013-02-10 22:26:00,
2013-02-10 22:32:00,33.6,-99.9,28.40,SSW,202,13.0,-999.0,-999,-99.99,,,-99.99,,2013-02-10 22:32:00,
2013-02-10 22:38:00,33.6,-99.9,28.40,SSW,202,12.0,-999.0,-999,-99.99,,,-99.99,,2013-02-10 22:38:00,
2013-02-10 22:44:00,33.6,-99.9,28.40,South,180,17.0,-999.0,-999,-99.99,,,-99.99,,2013-02-10 22:44:00,
2013-02-10 22:50:00,33.6,-99.9,28.40,SW,225,11.0,-999.0,-999,-99.99,,,-99.99,,2013-02-10 22:50:00,
2013-02-10 22:56:00,33.6,-99.9,28.41,WSW,247,13.0,-999.0,-999,-99.99,,,-99.99,,2013-02-10 22:56:00,
2013-02-10 23:02:00,33.6,-99.9,28.41,SSE,157,11.0,-999.0,-999,-99.99,,,-99.99,,2013-02-10 23:02:00,
2013-02-10 23:08:00,33.5,-99.9,28.41,SSE,157,12.0,-999.0,-999,-99.99,,,-99.99,,2013-02-10 23:08:00,
2013-02-10 23:14:00,33.3,-99.9,28.41,SSE,157,11.0,-999.0,-999,-99.99,,,-99.99,,2013-02-10 23:14:00,
2013-02-10 23:20:00,33.5,-99.9,28.42,SW,225,10.0,-999.0,-999,-99.99,,,-99.99,,2013-02-10 23:20:00,
2013-02-10 23:26:00,33.5,-99.9,28.42,South,180,12.0,-999.0,-999,-99.99,,,-99.99,,2013-02-10 23:26:00,
2013-02-10 23:32:00,33.6,-99.9,28.42,SSW,202,11.0,-999.0,-999,-99.99,,,-99.99,,2013-02-10 23:32:00,
2013-02-10 23:38:00,33.3,-99.9,28.42,SSW,202,11.0,-999.0,-999,-99.99,,,-99.99,,2013-02-10 23:38:00,
2013-02-10 23:44:00,33.2,-99.9,28.42,SW,225,9.0,-999.0,-999,-99.99,,,-99.99,,2013-02-10 23:44:00,
2013-02-10 23:50:00,33.2,-99.9,28.42,SW,225,9.0,-999.0,-999,-99.99,,,-99.99,,2013-02-10 23:50:00,
2013-02-10 23:56:00,33.1,-99.9,28.42,SSW,202,10.0,-999.0,-999,-99.99,,,-99.99,,2013-02-10 23:56:00,